Tracking 30685 objects as of 17-Jun-2025
HD Live streaming from Space Station
objects crossing your sky now

NOAA 16 DEB

Track NOAA 16 DEB now!
10-day predictions


NORAD ID: 41292
Int'l Code: 2000-055GU
Perigee: 699.8 km
Apogee: 753.4 km
Inclination: 99.0 °
Period: 99.2 minutes
Semi major axis: 7097 km
RCS: Unknown
Launch date: September 21, 2000
Source: United States (US)
Launch site: AIR FORCE WESTERN TEST RANGE (AFWTR)

Note: This is SATELLITE DEBRIS
Your satellite tracking list
Your tracking list is empty




NASA's NSSDC Master Catalog

Two Line Element Set (TLE):
1 41292U 00055GU  25167.30433143  .00005820  00000-0  14425-2 0  9993
2 41292  98.9872  12.1842 0037727  53.1291 307.3351 14.51892812494615
Source of the keplerian elements: AFSPC